| time (UTC) | temp C | wind direction | speed KPH | gust KPH | rain 1hr cm | rain 24hr cm | rain mn cm | humidity % | barometer mb |
| 20260902173357 | 27 | 171 | 3.2 | 12.9 | 0.00 | 0.00 | 0.00 | 56 | 1022.1 |
| 20260902172349 | 27 | 167 | 6.4 | 14.5 | 0.00 | 0.00 | 0.00 | 56 | 1022.0 |
| 20260902171342 | 27 | 127 | 6.4 | 17.7 | 0.00 | 0.00 | 0.00 | 55 | 1022.0 |
| 20260902170357 | 27 | 125 | 4.8 | 19.3 | 0.00 | 0.00 | 0.00 | 55 | 1022.1 |
| 20260902165348 | 28 | 126 | 9.7 | 19.3 | 0.00 | 0.00 | 0.00 | 54 | 1022.0 |
| 20260902164343 | 28 | 127 | 9.7 | 20.9 | 0.00 | 0.00 | 0.00 | 53 | 1021.9 |
| 20260902163343 | 28 | 110 | 11.3 | 19.3 | 0.00 | 0.00 | 0.00 | 52 | 1022.0 |
| 20260902162355 | 28 | 124 | 9.7 | 19.3 | 0.00 | 0.00 | 0.00 | 51 | 1022.1 |
| 20260902161349 | 29 | 136 | 6.4 | 14.5 | 0.00 | 0.00 | 0.00 | 49 | 1022.0 |
| 20260902160346 | 29 | 208 | 4.8 | 17.7 | 0.00 | 0.00 | 0.00 | 49 | 1022.2 |
| 20260902155351 | 29 | 131 | 8.0 | 16.1 | 0.00 | 0.00 | 0.00 | 49 | 1022.1 |
| 20260902154351 | 28 | 139 | 9.7 | 20.9 | 0.00 | 0.00 | 0.00 | 50 | 1022.2 |
| 20260902153347 | 29 | 140 | 8.0 | 19.3 | 0.00 | 0.00 | 0.00 | 47 | 1022.1 |
| 20260902152347 | 29 | 205 | 8.0 | 19.3 | 0.00 | 0.00 | 0.00 | 49 | 1022.2 |
| 20260902151342 | 28 | 133 | 9.7 | 17.7 | 0.00 | 0.00 | 0.00 | 49 | 1022.2 |
| 20260902150403 | 29 | 170 | 6.4 | 17.7 | 0.00 | 0.00 | 0.00 | 48 | 1022.2 |
| 20260902145357 | 29 | 148 | 9.7 | 20.9 | 0.00 | 0.00 | 0.00 | 49 | 1022.3 |
| 20260902144354 | 29 | 149 | 6.4 | 22.5 | 0.00 | 0.00 | 0.00 | 46 | 1022.3 |
| 20260902143351 | 29 | 153 | 9.7 | 20.9 | 0.00 | 0.00 | 0.00 | 46 | 1022.4 |
| 20260902142359 | 29 | 124 | 9.7 | 19.3 | 0.00 | 0.00 | 0.00 | 45 | 1022.5 |
| 20260902141354 | 29 | 119 | 9.7 | 20.9 | 0.00 | 0.00 | 0.00 | 44 | 1022.5 |
| 20260902140354 | 29 | 156 | 6.4 | 17.7 | 0.00 | 0.00 | 0.00 | 45 | 1022.7 |
| 20260902135347 | 29 | 128 | 16.1 | 22.5 | 0.00 | 0.00 | 0.00 | 45 | 1022.5 |
| 20260902134347 | 30 | 123 | 9.7 | 24.1 | 0.00 | 0.00 | 0.00 | 44 | 1022.7 |
| 20260902133343 | 29 | 201 | 8.0 | 24.1 | 0.00 | 0.00 | 0.00 | 44 | 1022.7 |
| 20260902132358 | 29 | 95 | 9.7 | 22.5 | 0.00 | 0.00 | 0.00 | 43 | 1022.8 |
| 20260902131340 | 29 | 118 | 16.1 | 25.7 | 0.00 | 0.00 | 0.00 | 43 | 1023.0 |
| 20260902130401 | 29 | 122 | 14.5 | 24.1 | 0.00 | 0.00 | 0.00 | 42 | 1022.9 |
| 20260902125347 | 29 | 128 | 11.3 | 27.4 | 0.00 | 0.00 | 0.00 | 42 | 1022.8 |
| 20260902124401 | 30 | 127 | 11.3 | 19.3 | 0.00 | 0.00 | 0.00 | 41 | 1022.8 |
| 20260902123353 | 30 | 165 | 6.4 | 20.9 | 0.00 | 0.00 | 0.00 | 41 | 1022.7 |
| 20260902122344 | 30 | 202 | 6.4 | 27.4 | 0.00 | 0.00 | 0.00 | 42 | 1022.7 |
| 20260902121339 | 30 | 238 | 6.4 | 19.3 | 0.00 | 0.00 | 0.00 | 40 | 1022.7 |
| 20260902120401 | 30 | 236 | 9.7 | 24.1 | 0.00 | 0.00 | 0.00 | 40 | 1022.6 |
| 20260902115355 | 30 | 137 | 8.0 | 27.4 | 0.00 | 0.00 | 0.00 | 39 | 1022.7 |
| 20260902114349 | 30 | 133 | 14.5 | 24.1 | 0.00 | 0.00 | 0.00 | 38 | 1022.7 |
| 20260902113349 | 30 | 158 | 12.9 | 27.4 | 0.00 | 0.00 | 0.00 | 38 | 1022.6 |
| 20260902112401 | 30 | 167 | 9.7 | 24.1 | 0.00 | 0.00 | 0.00 | 38 | 1022.6 |
| 20260902111340 | 31 | 225 | 4.8 | 20.9 | 0.00 | 0.00 | 0.00 | 38 | 1022.6 |
| 20260902110400 | 31 | 163 | 11.3 | 20.9 | 0.00 | 0.00 | 0.00 | 37 | 1022.6 |
| 20260902105351 | 31 | 250 | 6.4 | 19.3 | 0.00 | 0.00 | 0.00 | 37 | 1022.5 |
| 20260902104347 | 30 | 128 | 8.0 | 20.9 | 0.00 | 0.00 | 0.00 | 37 | 1022.6 |
| 20260902103349 | 31 | 125 | 11.3 | 22.5 | 0.00 | 0.00 | 0.00 | 36 | 1022.6 |
| 20260902102342 | 31 | 96 | 4.8 | 16.1 | 0.00 | 0.00 | 0.00 | 36 | 1022.5 |
| 20260902101342 | 31 | 49 | 1.6 | 4.8 | 0.00 | 0.00 | 0.00 | 38 | 1022.6 |
| 20260902100401 | 31 | 49 | 3.2 | 8.0 | 0.00 | 0.00 | 0.00 | 39 | 1022.4 |
| 20260902095355 | 30 | 17 | 0.0 | 6.4 | 0.00 | 0.00 | 0.00 | 43 | 1022.5 |
| 20260902094355 | 30 | 306 | 3.2 | 6.4 | 0.00 | 0.00 | 0.00 | 46 | 1022.5 |
| 20260902093349 | 29 | 302 | 0.0 | 6.4 | 0.00 | 0.00 | 0.00 | 50 | 1022.6 |
| 20260902092342 | 28 | 303 | 4.8 | 8.0 | 0.00 | 0.00 | 0.00 | 51 | 1022.5 |
| 20260902091347 | 27 | 339 | 3.2 | 6.4 | 0.00 | 0.00 | 0.00 | 52 | 1022.5 |
| 20260902090345 | 27 | 340 | 3.2 | 6.4 | 0.00 | 0.00 | 0.00 | 55 | 1022.4 |
| 20260902085357 | 26 | 340 | 1.6 | 8.0 | 0.00 | 0.00 | 0.00 | 58 | 1022.4 |
| 20260902084357 | 26 | 340 | 0.0 | 8.0 | 0.00 | 0.00 | 0.00 | 59 | 1022.3 |
| 20260902083341 | 26 | 30 | 3.2 | 4.8 | 0.00 | 0.00 | 0.00 | 61 | 1022.4 |
| 20260902082339 | 25 | 31 | 0.0 | 4.8 | 0.00 | 0.00 | 0.00 | 63 | 1022.2 |
| 20260902081339 | 25 | 31 | 3.2 | 6.4 | 0.00 | 0.00 | 0.00 | 63 | 1022.3 |
| 20260902080345 | 25 | 35 | 1.6 | 3.2 | 0.00 | 0.00 | 0.00 | 65 | 1022.2 |
| 20260902075343 | 25 | 35 | 3.2 | 4.8 | 0.00 | 0.00 | 0.00 | 66 | 1022.1 |
| 20260902074345 | 24 | 37 | 3.2 | 6.4 | 0.00 | 0.00 | 0.00 | 67 | 1022.1 |
| 20260902073349 | 23 | 46 | 0.0 | 6.4 | 0.00 | 0.00 | 0.00 | 69 | 1022.2 |
| 20260902072341 | 23 | 41 | 4.8 | 6.4 | 0.00 | 0.00 | 0.00 | 70 | 1022.2 |
| 20260902071401 | 23 | 38 | 1.6 | 6.4 | 0.00 | 0.00 | 0.00 | 72 | 1022.1 |
| 20260902070338 | 23 | 38 | 3.2 | 4.8 | 0.00 | 0.00 | 0.00 | 72 | 1022.0 |
| 20260902065357 | 23 | 38 | 0.0 | 3.2 | 0.00 | 0.00 | 0.00 | 73 | 1021.9 |
| 20260902064359 | 23 | 38 | 0.0 | 3.2 | 0.00 | 0.00 | 0.00 | 74 | 1021.8 |
| 20260902063359 | 22 | 38 | 0.0 | 1.6 | 0.00 | 0.00 | 0.00 | 76 | 1021.8 |
| 20260902062354 | 22 | 38 | 0.0 | 0.0 | 0.00 | 0.00 | 0.00 | 77 | 1021.6 |
| 20260902060337 | 21 | 38 | 0.0 | 1.6 | 0.00 | 0.00 | 0.00 | 79 | 1021.5 |
| 20260902055339 | 21 | 38 | 0.0 | 1.6 | 0.00 | 0.00 | 0.00 | 79 | 1021.3 |
| 20260902054347 | 21 | 38 | 0.0 | 3.2 | 0.00 | 0.00 | 0.00 | 79 | 1021.3 |
| 20260902053350 | 21 | 38 | 0.0 | 1.6 | 0.00 | 0.00 | 0.00 | 79 | 1021.3 |
| 20260902052343 | 21 | 38 | 0.0 | 1.6 | 0.00 | 0.00 | 0.00 | 79 | 1021.3 |
| 20260902051347 | 21 | 38 | 1.6 | 3.2 | 0.00 | 0.00 | 0.00 | 79 | 1021.1 |
| 20260902050348 | 21 | 38 | 0.0 | 1.6 | 0.00 | 0.00 | 0.00 | 78 | 1021.0 |
| 20260902045340 | 21 | 38 | 0.0 | 3.2 | 0.00 | 0.00 | 0.00 | 79 | 1021.1 |
| 20260902044359 | 21 | 38 | 1.6 | 4.8 | 0.00 | 0.00 | 0.00 | 78 | 1021.0 |
| 20260902043356 | 21 | 38 | 3.2 | 4.8 | 0.00 | 0.00 | 0.00 | 78 | 1020.9 |
| 20260902042356 | 21 | 38 | 0.0 | 3.2 | 0.00 | 0.00 | 0.00 | 78 | 1021.0 |
| 20260902041354 | 21 | 38 | 3.2 | 4.8 | 0.00 | 0.00 | 0.00 | 77 | 1021.1 |
| 20260902040339 | 21 | 38 | 3.2 | 4.8 | 0.00 | 0.00 | 0.00 | 77 | 1021.2 |
| 20260902035349 | 21 | 38 | 0.0 | 3.2 | 0.00 | 0.00 | 0.00 | 77 | 1021.2 |
| 20260902034347 | 21 | 39 | 1.6 | 6.4 | 0.00 | 0.00 | 0.00 | 77 | 1021.1 |
| 20260902033345 | 21 | 38 | 4.8 | 6.4 | 0.00 | 0.00 | 0.00 | 77 | 1021.3 |
| 20260902032343 | 21 | 39 | 0.0 | 4.8 | 0.00 | 0.00 | 0.00 | 77 | 1021.2 |
| 20260902031341 | 21 | 40 | 0.0 | 3.2 | 0.00 | 0.00 | 0.00 | 77 | 1021.2 |
| 20260902030346 | 22 | 40 | 0.0 | 4.8 | 0.00 | 0.00 | 0.00 | 76 | 1021.2 |
| 20260902025358 | 22 | 40 | 1.6 | 6.4 | 0.00 | 0.00 | 0.00 | 76 | 1021.2 |
| 20260902024358 | 22 | 39 | 1.6 | 6.4 | 0.00 | 0.00 | 0.00 | 76 | 1021.4 |
| 20260902023358 | 22 | 41 | 3.2 | 6.4 | 0.00 | 0.00 | 0.00 | 75 | 1021.5 |
| 20260902022358 | 22 | 42 | 1.6 | 6.4 | 0.00 | 0.00 | 0.00 | 75 | 1021.4 |
| 20260902021357 | 22 | 42 | 1.6 | 6.4 | 0.00 | 0.00 | 0.00 | 74 | 1021.4 |
| 20260902015359 | 22 | 42 | 3.2 | 4.8 | 0.00 | 0.00 | 0.00 | 74 | 1021.3 |
| 20260902014341 | 22 | 42 | 3.2 | 4.8 | 0.00 | 0.00 | 0.00 | 74 | 1021.5 |
| 20260902013400 | 22 | 42 | 0.0 | 4.8 | 0.00 | 0.00 | 0.00 | 74 | 1021.7 |
| 20260902012355 | 22 | 42 | 1.6 | 6.4 | 0.00 | 0.00 | 0.00 | 73 | 1021.7 |
| 20260902011356 | 22 | 42 | 1.6 | 8.0 | 0.00 | 0.00 | 0.00 | 73 | 1021.8 |
| 20260902010337 | 22 | 43 | 3.2 | 4.8 | 0.00 | 0.00 | 0.00 | 73 | 1021.8 |
| 20260902005351 | 22 | 43 | 4.8 | 6.4 | 0.00 | 0.00 | 0.00 | 73 | 1022.0 |
| 20260902004357 | 22 | 43 | 1.6 | 6.4 | 0.00 | 0.00 | 0.00 | 72 | 1021.9 |
| 20260902003357 | 23 | 44 | 3.2 | 6.4 | 0.00 | 0.00 | 0.00 | 71 | 1021.9 |
| 20260902002355 | 23 | 147 | 3.2 | 4.8 | 0.00 | 0.00 | 0.00 | 70 | 1022.0 |
| 20260902001341 | 23 | 152 | 1.6 | 3.2 | 0.00 | 0.00 | 0.00 | 70 | 1022.0 |
| 20260902000340 | 23 | 152 | 1.6 | 6.4 | 0.00 | 0.00 | 0.00 | 70 | 1022.0 |
| 20260901235339 | 23 | 155 | 0.0 | 0.0 | 0.00 | 0.00 | 0.00 | 70 | 1021.8 |
| 20260901234339 | 23 | 155 | 0.0 | 0.0 | 0.00 | 0.00 | 0.00 | 69 | 1021.8 |
| 20260901233349 | 23 | 155 | 0.0 | 0.0 | 0.00 | 0.00 | 0.00 | 69 | 1021.8 |
| 20260901232359 | 23 | 155 | 0.0 | 0.0 | 0.00 | 0.00 | 0.00 | 69 | 1021.9 |
| 20260901231339 | 23 | 155 | 0.0 | 0.0 | 0.00 | 0.00 | 0.00 | 68 | 1021.9 |
| 20260901230345 | 23 | 155 | 0.0 | 0.0 | 0.00 | 0.00 | 0.00 | 68 | 1021.8 |
| 20260901225357 | 23 | 155 | 0.0 | 0.0 | 0.00 | 0.00 | 0.00 | 68 | 1021.6 |
| 20260901224358 | 23 | 155 | 0.0 | 0.0 | 0.00 | 0.00 | 0.00 | 68 | 1021.5 |
| 20260901223339 | 24 | 155 | 0.0 | 3.2 | 0.00 | 0.00 | 0.00 | 67 | 1021.4 |
| 20260901222340 | 24 | 155 | 1.6 | 3.2 | 0.00 | 0.00 | 0.00 | 66 | 1021.5 |
| 20260901221341 | 24 | 156 | 0.0 | 1.6 | 0.00 | 0.00 | 0.00 | 66 | 1021.4 |
| 20260901220346 | 24 | 156 | 0.0 | 1.6 | 0.00 | 0.00 | 0.00 | 65 | 1021.3 |
| 20260901215340 | 24 | 156 | 0.0 | 1.6 | 0.00 | 0.00 | 0.00 | 66 | 1021.3 |
| 20260901214343 | 24 | 156 | 0.0 | 1.6 | 0.00 | 0.00 | 0.00 | 65 | 1021.1 |
| 20260901213343 | 24 | 156 | 0.0 | 1.6 | 0.00 | 0.00 | 0.00 | 65 | 1021.0 |
| 20260901212341 | 24 | 156 | 0.0 | 1.6 | 0.00 | 0.00 | 0.00 | 65 | 1020.9 |
| 20260901211345 | 25 | 156 | 3.2 | 4.8 | 0.00 | 0.00 | 0.00 | 65 | 1020.9 |
| 20260901210345 | 25 | 156 | 0.0 | 4.8 | 0.00 | 0.00 | 0.00 | 64 | 1020.7 |
| 20260901205355 | 25 | 156 | 0.0 | 3.2 | 0.00 | 0.00 | 0.00 | 64 | 1020.8 |
| 20260901204357 | 25 | 156 | 1.6 | 4.8 | 0.00 | 0.00 | 0.00 | 64 | 1020.8 |
| 20260901203339 | 25 | 158 | 1.6 | 6.4 | 0.00 | 0.00 | 0.00 | 63 | 1020.6 |
| 20260901202356 | 25 | 220 | 1.6 | 6.4 | 0.00 | 0.00 | 0.00 | 61 | 1020.6 |
| 20260901201339 | 26 | 221 | 1.6 | 4.8 | 0.00 | 0.00 | 0.00 | 60 | 1020.4 |
| 20260901200345 | 26 | 221 | 1.6 | 3.2 | 0.00 | 0.00 | 0.00 | 60 | 1020.5 |
| 20260901195344 | 26 | 221 | 1.6 | 4.8 | 0.00 | 0.00 | 0.00 | 60 | 1020.5 |
| 20260901194345 | 26 | 221 | 1.6 | 6.4 | 0.00 | 0.00 | 0.00 | 60 | 1020.3 |
| 20260901193345 | 26 | 221 | 3.2 | 4.8 | 0.00 | 0.00 | 0.00 | 59 | 1020.2 |
| 20260901192338 | 26 | 221 | 1.6 | 6.4 | 0.00 | 0.00 | 0.00 | 59 | 1020.2 |
| 20260901191338 | 26 | 224 | 1.6 | 4.8 | 0.00 | 0.00 | 0.00 | 58 | 1020.1 |
| 20260901190341 | 26 | 224 | 3.2 | 6.4 | 0.00 | 0.00 | 0.00 | 58 | 1019.8 |
| 20260901185340 | 26 | 224 | 4.8 | 8.0 | 0.00 | 0.00 | 0.00 | 57 | 1019.7 |
| 20260901184344 | 27 | 235 | 3.2 | 8.0 | 0.00 | 0.00 | 0.00 | 57 | 1019.7 |
| 20260901183346 | 27 | 235 | 3.2 | 4.8 | 0.00 | 0.00 | 0.00 | 56 | 1019.5 |
| 20260901182345 | 27 | 235 | 3.2 | 4.8 | 0.00 | 0.00 | 0.00 | 56 | 1019.4 |
| 20260901181347 | 27 | 235 | 1.6 | 8.0 | 0.00 | 0.00 | 0.00 | 56 | 1019.5 |
| 20260901180347 | 27 | 232 | 4.8 | 8.0 | 0.00 | 0.00 | 0.00 | 55 | 1019.9 |
| 20260901175400 | 27 | 231 | 4.8 | 11.3 | 0.00 | 0.00 | 0.00 | 55 | 1020.0 |
| 20260901174358 | 27 | 238 | 1.6 | 9.7 | 0.00 | 0.00 | 0.00 | 55 | 1020.2 |